Location: 22
(39.7117°N, 89.5929°W)
Time: 06:02:17
(UTC-05:00)

Tiangong - Visible Passes

Search period start: 24 September 2023 00:00
Search period end: 04 October 2023 00:00
Orbit: 374 x 385 km, 41.5° (Epoch: 24 September)

Date Brightness Start Highest point End Pass type
(mag) Time Alt. Az. Time Alt. Az. Time Alt. Az.
26 Sep 0.3 20:01:39 10° S 20:02:00 11° SSE 20:02:00 11° SSE visible
27 Sep 0.1 20:35:06 10° SW 20:36:07 18° SSW 20:36:07 18° SSW visible
28 Sep -0.6 19:34:13 10° SSW 19:36:38 20° SSE 19:37:56 16° ESE visible
28 Sep 1.2 21:09:58 10° WSW 21:10:02 11° WSW 21:10:02 11° WSW visible
29 Sep -2.1 20:08:31 10° WSW 20:11:34 55° SSE 20:11:40 55° SSE visible
30 Sep -1.2 19:07:15 10° SW 19:10:06 32° SSE 19:12:57 10° E visible
30 Sep -0.2 20:43:33 10° W 20:45:16 29° W 20:45:16 29° W visible
01 Oct -2.3 19:41:55 10° WSW 19:45:03 81° SSE 19:46:38 26° E visible
02 Oct -1.9 20:17:01 10° W 20:19:58 61° NNW 20:19:58 61° NNW visible
03 Oct -2.1 19:15:15 10° W 19:18:23 76° N 19:21:09 13° ENE visible
03 Oct 0.6 20:52:06 10° WNW 20:53:14 20° WNW 20:53:14 20° WNW visible
